Weather History for KFIT - January, 2013

Change the Weather History Date:

Sunday, January 27, 2013

  Actual Average (KORH) Record (KORH)
Temperature  
Mean Temperature 21 °F 24 °F  
Max Temperature 30 °F 31 °F 63 °F (1916)
Min Temperature 12 °F 17 °F -10 °F (1935)
Degree Days  
Heating Degree Days 44 41  
Month to date heating degree days 1103  
Since 1 July heating degree days 3607  
Cooling Degree Days 0 0  
Month to date cooling degree days 0  
Year to date cooling degree days 0  
Moisture  
Dew Point -1 °F    
Average Humidity 45    
Maximum Humidity 67    
Minimum Humidity 24    
Precipitation  
Precipitation 0.00 in 0.11 in 2.13 in (1996)
Month to date precipitation 3.04  
Year to date precipitation 3.04  
Sea Level Pressure  
Sea Level Pressure 30.39 in    
Wind  
Wind Speed 8 mph (WNW)    
Max Wind Speed 16 mph    
Max Gust Speed 22 mph    
Visibility 10 miles    
Events      
T = Trace of Precipitation, MM = Missing Value Source: NWS Daily Summary

Daily Weather History Graph

Daily Weather History Graph

Search for Another Location

Airport or City:

Trip Planner

Search our weather history database for the weather conditions in past years. The results will help you decide how hot, cold, wet, or windy it might be!

Date:

Astronomy

Jan. 27, 2013 Rise Set
Actual Time 7:05 AM EST 4:54 PM EST
Civil Twilight 6:35 AM EST 5:24 PM EST
Nautical Twilight 6:01 AM EST 5:58 PM EST
Astronomical Twilight 5:28 AM EST 6:32 PM EST
Moon 5:48 PM EST (1/27) 6:55 AM EST (1/27)
Length of Visible Light 10h 49m
Length of Day
9h 48m
Full, 100% of the Moon is Illuminated
Jan 27
Full
Feb 3
Last Quarter
Feb 10
New
Feb 17
First Quarter
Feb 25
Full

Hourly Weather History & Observations

Time (EST) Temp. Windchill Dew Point Humidity Pressure Visibility Wind Dir Wind Speed Gust Speed Precip Events Conditions
12:52 AM 12.9 °F -1.6 °F -0.9 °F 54% 30.25 in 10.0 mi West 12.7 mph - N/A   Clear
1:52 AM 12.0 °F - -2.0 °F 53% 30.28 in 10.0 mi Calm Calm - N/A   Clear
2:52 AM 12.0 °F -1.3 °F -0.9 °F 56% 30.29 in 10.0 mi West 10.4 mph - N/A   Clear
3:52 AM 12.9 °F -0.9 °F -0.0 °F 56% 30.30 in 10.0 mi WNW 11.5 mph - N/A   Clear
4:52 AM 12.9 °F 2.6 °F -0.0 °F 56% 30.32 in 10.0 mi WNW 6.9 mph - N/A   Clear
5:52 AM 12.0 °F - -0.0 °F 59% 30.34 in 10.0 mi Calm Calm - N/A   Clear
6:52 AM 12.0 °F 1.5 °F -0.0 °F 59% 30.35 in 10.0 mi WNW 6.9 mph - N/A   Clear
7:52 AM 14.0 °F 0.5 °F 1.0 °F 56% 30.37 in 10.0 mi NW 11.5 mph - N/A   Clear
8:52 AM 17.1 °F 2.0 °F -0.0 °F 47% 30.39 in 10.0 mi WNW 16.1 mph - N/A   Clear
9:52 AM 21.0 °F 8.6 °F -0.9 °F 38% 30.41 in 10.0 mi WNW 12.7 mph 20.7 mph N/A   Clear
10:52 AM 24.1 °F 13.7 °F -0.0 °F 35% 30.43 in 10.0 mi WNW 10.4 mph - N/A   Clear
11:52 AM 26.1 °F 15.0 °F -0.9 °F 31% 30.42 in 10.0 mi NNW 12.7 mph 19.6 mph N/A   Clear
12:52 PM 28.0 °F 16.5 °F -2.0 °F 27% 30.41 in 10.0 mi NW 15.0 mph 21.9 mph N/A   Clear
1:52 PM 30.0 °F 19.5 °F -2.9 °F 24% 30.39 in 10.0 mi WNW 13.8 mph 20.7 mph N/A   Clear
2:52 PM 30.0 °F 19.1 °F -2.9 °F 24% 30.40 in 10.0 mi NW 15.0 mph 20.7 mph N/A   Clear
3:52 PM 30.0 °F 20.0 °F -2.9 °F 24% 30.39 in 10.0 mi WNW 12.7 mph - N/A   Clear
4:52 PM 26.1 °F 19.4 °F -2.9 °F 28% 30.43 in 10.0 mi NW 5.8 mph - N/A   Clear
5:52 PM 24.1 °F 16.0 °F -2.9 °F 31% 30.46 in 10.0 mi NW 6.9 mph - N/A   Clear
6:52 PM 21.0 °F 13.4 °F -2.9 °F 35% 30.46 in 10.0 mi WNW 5.8 mph - N/A   Clear
7:52 PM 16.0 °F - -0.0 °F 49% 30.47 in 10.0 mi Calm Calm - N/A   Clear
8:52 PM 16.0 °F - 1.9 °F 54% 30.46 in 10.0 mi Calm Calm - N/A   Clear
9:52 PM 15.1 °F - 1.9 °F 56% 30.47 in 10.0 mi Calm Calm - N/A   Clear
10:52 PM 16.0 °F - 1.9 °F 54% 30.48 in 10.0 mi Calm Calm - N/A   Clear
11:52 PM 12.9 °F - 3.9 °F 67% 30.47 in 10.0 mi Calm Calm - N/A   Scattered Clouds